Location: Biltmore Gardens
(41.6070°N, 83.4666°W)
Time: 10:43:45
(UTC+00:00)

Cosmos 2344 - Pass Details

Date: 27 October 2020
Orbit: 1246 x 2997 km, 63.3° (Epoch: 25 November)

Event Time Altitude Azimuth Distance (km) Brightness Sun altitude
Exits shadow 09:17:22 57° 325° (NW) 1,459 3.6 -31.0°
Drops below altitude 10° 09:24:46 10° 31° (NNE) 3,458 6.3 -29.6°
Sets 09:27:56 0° 36° (NE) 4,587 7.1 -29.0°
